TimePST,TemperatureF,Dew PointF,Humidity,Sea Level PressureIn,VisibilityMPH,Wind Direction,Wind SpeedMPH,Gust SpeedMPH,PrecipitationIn,Events,Conditions,WindDirDegrees,DateUTC
12:54 AM,55.9,51.1,84,29.94,10.0,NE,3.5,-,N/A,,Partly Cloudy,50,2013-11-17 08:54:00
1:54 AM,57.0,52.0,83,29.95,10.0,North,3.5,-,N/A,,Mostly Cloudy,10,2013-11-17 09:54:00
2:54 AM,55.9,51.1,84,29.95,10.0,NNE,4.6,-,N/A,,Clear,30,2013-11-17 10:54:00
3:54 AM,55.0,50.0,83,29.95,10.0,NNE,4.6,-,N/A,,Clear,30,2013-11-17 11:54:00
4:54 AM,55.0,51.1,86,29.95,10.0,NNE,6.9,-,N/A,,Clear,30,2013-11-17 12:54:00
5:54 AM,54.0,50.0,86,29.97,10.0,Calm,Calm,-,N/A,,Clear,0,2013-11-17 13:54:00
6:54 AM,53.1,48.9,86,29.99,7.0,NE,4.6,-,N/A,,Clear,40,2013-11-17 14:54:00
7:54 AM,59.0,51.1,75,30.02,7.0,NE,4.6,-,N/A,,Clear,40,2013-11-17 15:54:00
8:54 AM,66.0,51.1,59,30.04,10.0,NE,3.5,-,N/A,,Clear,40,2013-11-17 16:54:00
9:54 AM,68.0,51.1,55,30.06,7.0,WNW,3.5,-,N/A,,Partly Cloudy,290,2013-11-17 17:54:00
10:54 AM,70.0,51.1,51,30.06,7.0,SSW,6.9,-,N/A,,Scattered Clouds,210,2013-11-17 18:54:00
11:54 AM,70.0,52.0,53,30.04,7.0,South,9.2,-,N/A,,Partly Cloudy,190,2013-11-17 19:54:00
12:54 PM,69.1,53.1,57,30.03,7.0,South,8.1,-,N/A,,Scattered Clouds,190,2013-11-17 20:54:00
1:54 PM,66.9,54.0,63,30.02,7.0,SSW,8.1,-,N/A,,Scattered Clouds,200,2013-11-17 21:54:00
2:54 PM,68.0,53.1,59,30.02,7.0,SW,5.8,-,N/A,,Partly Cloudy,230,2013-11-17 22:54:00
3:54 PM,66.0,54.0,65,30.02,7.0,West,5.8,-,N/A,,Scattered Clouds,260,2013-11-17 23:54:00
4:54 PM,63.0,53.1,70,30.03,7.0,WNW,4.6,-,N/A,,Partly Cloudy,290,2013-11-18 00:54:00
5:54 PM,60.1,52.0,75,30.04,7.0,Calm,Calm,-,N/A,,Partly Cloudy,0,2013-11-18 01:54:00
6:54 PM,59.0,52.0,78,30.05,7.0,Calm,Calm,-,N/A,,Clear,0,2013-11-18 02:54:00
7:54 PM,57.9,52.0,81,30.05,7.0,NE,3.5,-,N/A,,Clear,50,2013-11-18 03:54:00
8:54 PM,57.0,52.0,83,30.07,7.0,NE,4.6,-,N/A,,Clear,50,2013-11-18 04:54:00
9:54 PM,57.0,51.1,81,30.08,7.0,NNE,3.5,-,N/A,,Clear,30,2013-11-18 05:54:00
10:54 PM,55.0,50.0,83,30.09,7.0,North,4.6,-,N/A,,Clear,10,2013-11-18 06:54:00
11:54 PM,54.0,48.9,83,30.09,10.0,North,4.6,-,N/A,,Clear,10,2013-11-18 07:54:00